Weather History for Greenville, TX

Change the Weather History Date:

Monday, June 11, 2012

  Actual Average Record
Temperature  
Mean Temperature 86 °F -  
Max Temperature 95 °F 85 °F 96 °F (2011)
Min Temperature 77 °F 70 °F 60 °F (2014)
Cooling Degree Days 21    
Growing Degree Days 36 (Base 50)    
Moisture  
Dew Point 71 °F    
Average Humidity 64    
Maximum Humidity 83    
Minimum Humidity 44    
Precipitation  
Precipitation 0.00 in - - ()
Sea Level Pressure  
Sea Level Pressure 29.86 in    
Wind  
Wind Speed 12 mph (SSE)    
Max Wind Speed 22 mph    
Max Gust Speed 26 mph    
Visibility 10 miles    
Events      
Averages and records for this station are not official NWS values.
T = Trace of Precipitation, MM = Missing Value Source: NWS Daily Summary

Daily Weather History Graph

Daily Weather History Graph

Search for Another Location

Airport:

Trip Planner

Search our weather history database for the weather conditions in past years. The results will help you decide how hot, cold, wet, or windy it might be!

Date:

Astronomy

Jun. 11, 2012 Rise Set
Actual Time 6:14 AM CDT 8:33 PM CDT
Civil Twilight 5:46 AM CDT 9:02 PM CDT
Nautical Twilight 5:11 AM CDT 9:37 PM CDT
Astronomical Twilight 4:32 AM CDT 10:15 PM CDT
Moon 1:14 AM CDT (6/11) 1:42 PM CDT (6/11)
Length of Visible Light 15h 15m
Length of Day
14h 18m
Waning Gibbous, 47% of the Moon is Illuminated
Jun 11
Waning Gibbous
Jun 19
New
Jun 26
First Quarter
Jul 3
Full
Jul 10
Last Quarter

Hourly Weather History & Observations

Time (CDT) Temp. Heat Index Dew Point Humidity Pressure Visibility Wind Dir Wind Speed Gust Speed Precip Events Conditions
12:15 AM 80.6 °F 83.9 °F 69.8 °F 70% 29.79 in 10.0 mi SSE 12.7 mph - N/A   Clear
12:35 AM 80.6 °F 83.9 °F 69.8 °F 70% 29.78 in 10.0 mi SSE 11.5 mph - N/A   Clear
12:55 AM 80.6 °F 83.9 °F 69.8 °F 70% 29.78 in 10.0 mi SSE 12.7 mph - N/A   Clear
1:15 AM 80.6 °F 83.9 °F 69.8 °F 70% 29.78 in 10.0 mi SSE 11.5 mph - N/A   Clear
1:35 AM 78.8 °F - 69.8 °F 74% 29.77 in 10.0 mi SSE 10.4 mph - N/A   Clear
1:55 AM 78.8 °F - 69.8 °F 74% 29.78 in 10.0 mi South 9.2 mph - N/A   Clear
2:15 AM 78.8 °F - 69.8 °F 74% 29.77 in 10.0 mi South 10.4 mph - N/A   Clear
2:35 AM 78.8 °F - 69.8 °F 74% 29.77 in 10.0 mi South 11.5 mph 16.1 mph N/A   Clear
2:55 AM 78.8 °F - 69.8 °F 74% 29.77 in 10.0 mi South 13.8 mph - N/A   Clear
3:15 AM 78.8 °F - 69.8 °F 74% 29.76 in 10.0 mi South 12.7 mph 16.1 mph N/A   Clear
3:35 AM 78.8 °F - 69.8 °F 74% 29.78 in 10.0 mi South 8.1 mph - N/A   Clear
3:55 AM 78.8 °F - 69.8 °F 74% 29.78 in 10.0 mi South 9.2 mph - N/A   Clear
4:35 AM 77.0 °F - 69.8 °F 78% 29.79 in 10.0 mi SSE 8.1 mph - N/A   Clear
4:55 AM 77.0 °F - 69.8 °F 78% 29.80 in 10.0 mi SSE 6.9 mph - N/A   Clear
5:15 AM 77.0 °F - 69.8 °F 78% 29.81 in 10.0 mi SSE 10.4 mph - N/A   Clear
5:35 AM 77.0 °F - 71.6 °F 83% 29.81 in 10.0 mi SSE 10.4 mph - N/A   Clear
5:55 AM 77.0 °F - 71.6 °F 83% 29.83 in 10.0 mi South 10.4 mph - N/A   Scattered Clouds
6:15 AM 77.0 °F - 71.6 °F 83% 29.83 in 10.0 mi SSE 10.4 mph - N/A   Overcast
6:35 AM 77.0 °F - 71.6 °F 83% 29.84 in 10.0 mi SSE 12.7 mph - N/A   Overcast
6:55 AM 77.0 °F - 71.6 °F 83% 29.84 in 10.0 mi SSE 13.8 mph 17.3 mph N/A   Overcast
7:15 AM 77.0 °F - 71.6 °F 83% 29.85 in 10.0 mi South 13.8 mph - N/A   Overcast
7:35 AM 78.8 °F - 71.6 °F 78% 29.86 in 7.0 mi South 13.8 mph 18.4 mph N/A   Overcast
7:55 AM 78.8 °F - 71.6 °F 78% 29.87 in 10.0 mi South 11.5 mph 19.6 mph N/A   Overcast
8:15 AM 78.8 °F - 71.6 °F 78% 29.87 in 10.0 mi South 13.8 mph 20.7 mph N/A   Overcast
8:55 AM 80.6 °F 84.6 °F 71.6 °F 74% 29.89 in 10.0 mi South 15.0 mph 20.7 mph N/A   Overcast
9:15 AM 80.6 °F 84.6 °F 71.6 °F 74% 29.89 in 10.0 mi South 13.8 mph - N/A   Overcast
9:55 AM 82.4 °F 87.2 °F 71.6 °F 70% 29.89 in 10.0 mi South 16.1 mph - N/A   Mostly Cloudy
10:15 AM 82.4 °F 87.2 °F 71.6 °F 70% 29.89 in 10.0 mi South 17.3 mph 23.0 mph N/A   Overcast
10:35 AM 86.0 °F 91.8 °F 71.6 °F 62% 29.90 in 10.0 mi South 18.4 mph 23.0 mph N/A   Mostly Cloudy
10:55 AM 86.0 °F 90.4 °F 69.8 °F 58% 29.90 in 10.0 mi South 19.6 mph 25.3 mph N/A   Mostly Cloudy
11:15 AM 84.2 °F 88.4 °F 69.8 °F 62% 29.90 in 10.0 mi South 18.4 mph 24.2 mph N/A   Scattered Clouds
11:55 AM 87.8 °F 93.8 °F 71.6 °F 58% 29.90 in 10.0 mi South 16.1 mph 21.9 mph N/A   Scattered Clouds
12:15 PM 89.6 °F 94.7 °F 69.8 °F 52% 29.90 in 10.0 mi South 21.9 mph 26.5 mph N/A   Clear
12:35 PM 89.6 °F 94.7 °F 69.8 °F 52% 29.90 in 10.0 mi South 16.1 mph 26.5 mph N/A   Clear
12:55 PM 89.6 °F 96.2 °F 71.6 °F 55% 29.89 in 10.0 mi South 18.4 mph - N/A   Clear
1:15 PM 91.4 °F 96.8 °F 69.8 °F 49% 29.89 in 10.0 mi South 19.6 mph 24.2 mph N/A   Clear
1:35 PM 91.4 °F 98.4 °F 71.6 °F 52% 29.89 in 10.0 mi South 16.1 mph 21.9 mph N/A   Clear
1:55 PM 91.4 °F 98.4 °F 71.6 °F 52% 29.88 in 10.0 mi South 16.1 mph - N/A   Clear
2:15 PM 91.4 °F 98.4 °F 71.6 °F 52% 29.88 in 10.0 mi South 13.8 mph 18.4 mph N/A   Clear
2:35 PM 93.2 °F 98.8 °F 69.8 °F 46% 29.88 in 10.0 mi South 12.7 mph 19.6 mph N/A   Clear
2:55 PM 93.2 °F 98.8 °F 69.8 °F 46% 29.88 in 10.0 mi South 16.1 mph 19.6 mph N/A   Clear
3:15 PM 93.2 °F 98.8 °F 69.8 °F 46% 29.87 in 10.0 mi South 13.8 mph - N/A   Clear
3:35 PM 95.0 °F 101.3 °F 69.8 °F 44% 29.87 in 10.0 mi South 13.8 mph - N/A   Clear
3:55 PM 95.0 °F 101.3 °F 69.8 °F 44% 29.87 in 10.0 mi South 12.7 mph - N/A   Clear
4:15 PM 95.0 °F 101.3 °F 69.8 °F 44% 29.87 in 10.0 mi South 11.5 mph 16.1 mph N/A   Clear
4:35 PM 95.0 °F 101.3 °F 69.8 °F 44% 29.87 in 10.0 mi SSE 11.5 mph - N/A   Clear
4:55 PM 95.0 °F 101.3 °F 69.8 °F 44% 29.87 in 10.0 mi SSE 10.4 mph - N/A   Scattered Clouds
5:15 PM 95.0 °F 103.2 °F 71.6 °F 47% 29.87 in 10.0 mi SSE 10.4 mph - N/A   Scattered Clouds
5:35 PM 95.0 °F 103.2 °F 71.6 °F 47% 29.86 in 10.0 mi South 10.4 mph 17.3 mph N/A   Clear
5:55 PM 95.0 °F 101.3 °F 69.8 °F 44% 29.86 in 10.0 mi SSE 12.7 mph - N/A   Clear
6:15 PM 93.2 °F 98.8 °F 69.8 °F 46% 29.86 in 10.0 mi SSE 11.5 mph - N/A   Clear
6:35 PM 93.2 °F 98.8 °F 69.8 °F 46% 29.86 in 10.0 mi SSE 8.1 mph - N/A   Clear
6:55 PM 91.4 °F 96.8 °F 69.8 °F 49% 29.86 in 10.0 mi SSE 9.2 mph - N/A   Clear
7:15 PM 91.4 °F 96.8 °F 69.8 °F 49% 29.86 in 10.0 mi SSE 8.1 mph - N/A   Clear
7:35 PM 91.4 °F 96.8 °F 69.8 °F 49% 29.86 in 10.0 mi South 6.9 mph - N/A   Clear
7:55 PM 89.6 °F 94.7 °F 69.8 °F 52% 29.87 in 10.0 mi South 8.1 mph - N/A   Clear
8:15 PM 87.8 °F 92.6 °F 69.8 °F 55% 29.87 in 10.0 mi SSE 6.9 mph - N/A   Clear
8:35 PM 86.0 °F 90.4 °F 69.8 °F 58% 29.87 in 10.0 mi SE 4.6 mph - N/A   Clear
8:55 PM 86.0 °F 91.8 °F 71.6 °F 62% 29.88 in 10.0 mi ESE 4.6 mph - N/A   Clear
9:15 PM 82.4 °F 87.2 °F 71.6 °F 70% 29.89 in 10.0 mi SE 4.6 mph - N/A   Clear
9:35 PM 82.4 °F 87.2 °F 71.6 °F 70% 29.89 in 10.0 mi ESE 3.5 mph - N/A   Clear
9:55 PM 82.4 °F 87.2 °F 71.6 °F 70% 29.89 in 10.0 mi ESE 4.6 mph - N/A   Clear
10:15 PM 82.4 °F 88.2 °F 73.4 °F 74% 29.90 in 10.0 mi SE 6.9 mph - N/A   Clear
10:35 PM 82.4 °F 88.2 °F 73.4 °F 74% 29.91 in 10.0 mi SE 6.9 mph - N/A   Clear
10:55 PM 82.4 °F 87.2 °F 71.6 °F 70% 29.93 in 10.0 mi ESE 3.5 mph - N/A   Clear
11:15 PM 84.2 °F 89.6 °F 71.6 °F 66% 29.93 in 10.0 mi ESE 4.6 mph - N/A   Clear
11:35 PM 82.4 °F 87.2 °F 71.6 °F 70% 29.92 in 10.0 mi ESE 3.5 mph - N/A   Clear
11:55 PM 82.4 °F 87.2 °F 71.6 °F 70% 29.93 in 10.0 mi SE 3.5 mph - N/A   Clear